Location: Belfast
(54.5830°N, 5.9330°W)
Time: 09:25:03
(UTC+01:00)

Coronas F rocket - Visible Passes

Search period start: 25 April 2014 00:00
Search period end: 05 May 2014 00:00
Orbit: 403 x 422 km, 82.5° (Epoch: 24 April)

Date Brightness Start Highest point End Pass type
(mag) Time Alt. Az. Time Alt. Az. Time Alt. Az.
25 Apr 3.7 00:03:00 10° NNE 00:05:32 20° ENE 00:05:36 20° ENE visible
25 Apr 3.3 01:36:14 10° NNW 01:38:29 30° WNW 01:38:29 30° WNW visible
26 Apr 2.2 00:49:02 10° N 00:51:52 62° N 00:51:52 62° N visible
27 Apr 3.2 00:02:16 10° N 00:05:10 28° ENE 00:05:14 28° ENE visible
27 Apr 3.6 01:35:59 10° NW 01:38:07 23° WNW 01:38:07 23° WNW visible
27 Apr 4.2 23:16:15 10° NE 23:17:45 13° ENE 23:18:34 12° ENE visible
28 Apr 2.1 00:48:31 10° NNW 00:51:28 61° WNW 00:51:28 61° WNW visible
29 Apr 2.5 00:01:30 10° N 00:04:38 41° ENE 00:04:47 40° E visible
29 Apr 4.0 01:35:47 10° NW 01:37:40 16° W 01:37:40 16° W visible
29 Apr 3.8 23:15:01 10° NNE 23:17:15 17° ENE 23:18:05 16° E visible
30 Apr 2.5 00:47:57 10° NNW 00:50:58 42° W 00:50:58 42° W visible
01 May 1.8 00:00:43 10° N 00:03:58 63° ENE 00:04:15 59° ESE visible
01 May 4.4 01:35:52 10° WNW 01:37:04 12° W 01:37:08 12° W visible
01 May 3.3 23:13:55 10° NNE 23:16:37 23° ENE 23:17:31 21° E visible
02 May 3.1 00:47:22 10° NNW 00:50:14 29° W 00:50:24 28° W visible
02 May 4.3 22:28:23 10° NE 22:29:00 10° ENE 22:29:38 10° ENE visible
02 May 1.6 23:59:53 10° NNW 00:03:09 84° W 00:03:39 61° S visible
03 May 2.8 23:12:49 10° N 23:15:49 33° ENE 23:16:52 26° ESE visible
04 May 3.7 00:46:47 10° NW 00:49:13 20° W 00:49:45 19° WSW visible
04 May 4.0 22:26:24 10° NNE 22:28:15 14° ENE 22:30:05 10° E visible
04 May 4.6 23:58:59 10° NNW 00:00:15 21° NNW 00:00:00 18° NNW visible
